Regional Weather Roundup
Issued by NWS

Home | Current Version | Previous Version | Text Only | Print | Product List | Glossary Off
Versions: 1 2 3 4 5 6 7 8 9 10 11 12 13 14 15 16 17 18 19 20 21 22 23 24 25 26 27 28 29 30 31 32 33 34 35 36 37 38 39 40 41 42 43 44 45 46 47 48 49 50

000
ASUS43 KMPX 011110
RWRMN
WEATHER ROUNDUP FOR MINNESOTA
NATIONAL WEATHER SERVICE TWIN CITIES/CHANHASSEN MN
600 AM CDT SUN MAY 01 2016


NOTE: "FAIR" INDICATES FEW OR NO CLOUDS BELOW 12,000 FEET WITH NO
SIGNIFICANT WEATHER AND/OR OBSTRUCTIONS TO VISIBILITY. N/A MEANS
CURRENT SKY AND/OR WEATHER CONDITIONS ARE NOT AVAILABLE.

MNZ060>063-068>070-011200-
   Twin Cities Metro

CITY           SKY/WX    TMP DP  RH WIND       PRES   REMARKS
TWIN CITIES    CLOUDY    42  32  67 N12       30.14R
ST PAUL        MOCLDY    42  33  70 N12       30.15S
CRYSTAL        MOCLDY    41  32  70 N7        30.14S
BLAINE         MOCLDY    41  34  75 NE9       30.15S
EDEN PRAIRIE   PTCLDY    42  31  64 N12       30.12S
SOUTH ST PAUL  CLOUDY    43  32  65 N7        30.13S
LAKE ELMO      FAIR      41  34  75 N7        30.15R
$$
MNZ001>005-007-008-013>017-022>024-027-028-011200-
   Northwest Minnesota

CITY           SKY/WX    TMP DP  RH WIND       PRES   REMARKS
BEMIDJI        CLEAR     25  23  93 NW3       30.27S
HALLOCK        CLEAR     36  27  69 CALM      30.30S
ROSEAU         CLEAR     32  27  80 CALM      30.30R
WARROAD        PTCLDY    32  28  86 CALM      30.30S
THIEF RVR FALL CLEAR     36  25  64 NE3       30.30S
CROOKSTON      PTCLDY    36  27  69 CALM      30.30R
FOSSTON        CLEAR     28  25  86 CALM      30.29S
DETROIT LAKES  CLEAR     37  32  81 NE6       30.27S
MOORHEAD       CLEAR     32  27  80 N3        30.28S
PARK RAPIDS    CLEAR     36  28  73 N5        30.25S
MAHNOMEN       FAIR      32  29  88 NE3       30.27S
$$
MNZ006-009>011-018-025>026-011200-
   North Central Minnesota

CITY           SKY/WX    TMP DP  RH WIND       PRES   REMARKS
BAUDETTE       CLEAR     30  25  81 CALM      30.28S
FLAG ISLAND    CLEAR     39  34  81 CALM      30.29S
INTL FALLS     CLEAR     29  27  92 CALM      30.29R
WASKISH        CLEAR     30  28  93 CALM      30.28S
BIG FORK       CLEAR     27  25  93 CALM      30.27S
LONGVILLE      CLEAR     30  27  86 CALM      30.25S
GRAND RAPIDS   CLEAR     30  25  80 CALM      30.26S
CRANE LAKE     CLEAR     23  23 100 CALM      30.31R
ORR            CLEAR     27  25  93 CALM      30.25S
COOK           CLEAR     25  25 100 CALM      30.27S
WALKER         FAIR      28  26  91 W3        30.26S
$$
MNZ012-019>021-037-011200-
   Northeast Minnesota

CITY           SKY/WX    TMP DP  RH WIND       PRES   REMARKS
DULUTH         CLEAR     33  26  75 NE5       30.21F WCI  29
ELY            CLEAR     27  25  93 CALM      30.26S
HIBBING        CLEAR     25  24  96 CALM      30.25S
EVELETH        CLEAR     32  30  93 N3        30.26R
DULUTH HARBOR  PTCLDY    39  34  81 NE10      30.24S
TWO HARBORS    CLEAR     37  28  70 N6        30.22R
SILVER BAY     CLEAR     36  28  75 N3        30.22S
GRAND MARAIS     N/A     40  31  70 NE7       30.24F
G MARAIS ARPRT CLEAR     32  27  80 N8        30.23R WCI  25
$$
MNZ029>031-032-039>041-046>048-054>057-064-011200-
   West Central Minnesota

CITY           SKY/WX    TMP DP  RH WIND       PRES   REMARKS
FERGUS FALLS   CLEAR     37  28  70 NE5       30.24S
WHEATON        CLEAR     36  30  80 N6        30.26R
MORRIS         CLEAR     34  28  80 N9        30.20S WCI  26
ALEXANDRIA     CLEAR     36  27  69 NE10      30.22R
ELBOW LAKE     FAIR      37  30  75 E8        30.23R
WADENA         PTCLDY    32  27  80 N6        30.23S WCI  26
GLENWOOD       CLEAR     36  28  75 NE13      30.20S
APPLETON       PTCLDY    36  28  75 N7        30.19S
BENSON         CLOUDY    37  27  65 NE7       30.19S
ORTONVILLE     CLOUDY    36  28  75 CALM      30.21R
MADISON        CLOUDY    37  30  75 N10       30.19S
WILLMAR        FAIR      37  30  75 NE10      30.18S
$$
MNZ033>034-036-042>043-049>051-058-059-011200-
   Central Minnesota

CITY           SKY/WX    TMP DP  RH WIND       PRES   REMARKS
ST CLOUD       CLOUDY    34  28  79 N6        30.18S WCI  29
SAUK CENTRE    FAIR      36  29  76 N8        30.20S
PAYNESVILLE    CLOUDY    35  30  82 NE8       30.18S WCI  28
AITKIN         CLEAR     34  27  75 N3        30.22R
PINE RIVER     CLEAR     34  28  80 N6        30.27S WCI  29
BRAINERD       CLEAR     33  27  78 N6        30.23R WCI  28
STAPLES        CLEAR     32  27  80 N5        30.24R WCI  27
LONG PRAIRIE   FAIR      36  30  80 N8        30.21S
LITTLE FALLS   CLEAR     34  28  80 CALM      30.21S
LITCHFIELD     PTCLDY    37  34  87 NE9       30.17S
BUFFALO        CLOUDY    38  31  75 N7        30.17S
MAPLE LAKE     CLOUDY    38  33  81 N7        30.18R
HUTCHINSON     CLEAR     39  33  77 N10       30.16S
$$
MNZ037-044-045-052-053-011200-
   East Central Minnesota

CITY           SKY/WX    TMP DP  RH WIND       PRES   REMARKS
PRINCETON      CLOUDY    37  30  75 N8        30.19S
MORA           CLOUDY    34  28  80 NE3       30.21S
CAMBRIDGE      CLOUDY    39  28  65 N6        30.16S
RUSH CITY      PTCLDY    36  31  83 N7        30.18S
MOOSE LAKE     CLOUDY    34  30  86 NE5       30.20S WCI  30
HINCKLEY       FAIR      34  32  93 N7        30.20S WCI  28
CLOQUET        CLOUDY    36  28  75 NE6       30.21S
MCGREGOR       CLEAR     34  30  86 CALM      30.23R
$$
MNZ071>073-080-081-089-090-097-098-011200-
   Southwest Minnesota

CITY           SKY/WX    TMP DP  RH WIND       PRES   REMARKS
MONTEVIDEO     PTCLDY    36  30  80 NE7       30.19S
GRANITE FALLS  CLOUDY    38  32  77 N7        30.18S
CANBY          CLOUDY    38  33  84 N6        30.19S
MARSHALL       CLOUDY    38  31  76 N9        30.16S
REDWOOD FALLS  CLOUDY    39  30  70 NE5       30.14S
OLIVIA         CLOUDY    37  30  75 NE12      30.15S
PIPESTONE      CLOUDY    39  36  87 NE9       30.11S
WINDOM         RAIN      39  37  93 N10       30.11R
WORTHINGTON    LGT RAIN  40  38  93 N18       30.09S
JACKSON        CLOUDY    41  37  87 NE13      30.09S
TRACY          CLOUDY    40  35  81 N10       30.14S
SLAYTON        LGT RAIN  39  38  95 N7        30.13R
$$
MNZ065>067-074>077-082>085-091>093-011200-
   South Central Minnesota

CITY           SKY/WX    TMP DP  RH WIND       PRES   REMARKS
MANKATO        CLOUDY    43  34  70 N10       30.10S
NEW ULM        CLOUDY    41  34  75 N6        30.12S
ST JAMES       LGT RAIN  36  34  93 N12       30.12S
FAIRMONT       CLOUDY    43  36  75 N12       30.08R
GLENCOE        CLOUDY    40  35  80 N8        30.14R
FARIBAULT      CLOUDY    43  37  81 VRB8      30.10S
OWATONNA       DRIZZLE   43  37  81 N9        30.08F
WASECA         CLOUDY    41  37  87 N9        30.10S
ALBERT LEA     CLOUDY    43  41  93 NE10      30.06S
$$
MNZ078>079-086>088-094>096-011200-
   Southeast Minnesota

CITY           SKY/WX    TMP DP  RH WIND       PRES   REMARKS
ROCHESTER      CLOUDY    43  40  89 N9        30.07R
RED WING       CLOUDY    45  32  61 NE9       30.10R
STANTON        CLOUDY    43  37  78 N9        30.10S
DODGE CENTER   LGT RAIN  41  41 100 N9        30.07S
WINONA         CLOUDY    46  37  71 E5        30.08R
AUSTIN         CLOUDY    43  37  81 NE7       30.05S
PRESTON        CLOUDY    41  37  86 N6        30.06R
$$
ABBREVIATIONS USED IN REMARKS
   TC - TEMPERATURES IN CELSIUS
  WCI - WIND CHILL INDEX
   HX - HEAT INDEX
  VSB - VISIBILITY
$$




USA.gov is the U.S. government's official web portal to all federal, state and local government web resources and services.